contact:dominique.lefevre@mio.osupytheas.fr, maurice.libes@osupytheas.fr, didier.mallarino@osupytheas.fr
Project:EMSO http://www.emso-fr.org/EMSO-France
Depth: 2436.0 m
Title:EMSO Ligure Ouest : Data MII capteur MICROCAT
DateTime_Computer,Latitude,Longitude,Temperature,Conductivity,Pressure,DateTime_Instrument
DateTime_Computer,Latitude,Longitude,degC,S m-1,dbar,DateTime_Instrument
2019-10-20T00:01:38Z,42.805,6.029,13.2961,4.59970,2469.993,2019-10-20T02:02:04Z
2019-10-20T00:04:41Z,42.805,6.029,13.2964,4.59969,2469.97,2019-10-20T02:05:07Z
2019-10-20T00:07:45Z,42.805,6.029,13.2961,4.59966,2469.984,2019-10-20T02:08:10Z
2019-10-20T00:10:48Z,42.805,6.029,13.2961,4.59963,2470.007,2019-10-20T02:11:14Z
2019-10-20T00:13:51Z,42.805,6.029,13.2961,4.59966,2470.017,2019-10-20T02:14:17Z
2019-10-20T00:16:54Z,42.805,6.029,13.2961,4.59966,2470.007,2019-10-20T02:17:20Z
2019-10-20T00:19:57Z,42.805,6.029,13.2964,4.59966,2469.993,2019-10-20T02:20:23Z
2019-10-20T00:23:01Z,42.805,6.029,13.2963,4.59970,2469.97,2019-10-20T02:23:26Z
2019-10-20T00:26:04Z,42.805,6.029,13.2960,4.59969,2469.984,2019-10-20T02:26:30Z
2019-10-20T00:29:07Z,42.805,6.029,13.2958,4.59966,2469.947,2019-10-20T02:29:33Z
2019-10-20T00:32:10Z,42.805,6.029,13.2957,4.59966,2469.947,2019-10-20T02:32:36Z
2019-10-20T00:35:14Z,42.805,6.029,13.2962,4.59968,2469.947,2019-10-20T02:35:39Z
2019-10-20T00:38:17Z,42.805,6.029,13.2961,4.59969,2469.97,2019-10-20T02:38:43Z
2019-10-20T00:41:21Z,42.805,6.029,13.2956,4.59966,2469.984,2019-10-20T02:41:46Z
2019-10-20T00:44:24Z,42.805,6.029,13.2964,4.59968,2469.984,2019-10-20T02:44:50Z
2019-10-20T00:47:27Z,42.805,6.029,13.2961,4.59965,2469.947,2019-10-20T02:47:53Z
2019-10-20T00:50:30Z,42.805,6.029,13.2958,4.59966,2469.947,2019-10-20T02:50:56Z
2019-10-20T00:53:33Z,42.805,6.029,13.2964,4.59966,2469.984,2019-10-20T02:53:59Z
2019-10-20T00:56:37Z,42.805,6.029,13.2963,4.59974,2469.974,2019-10-20T02:57:02Z
2019-10-20T00:59:40Z,42.805,6.029,13.2960,4.59971,2470.007,2019-10-20T03:00:06Z
2019-10-20T01:02:43Z,42.805,6.029,13.2964,4.59967,2469.97,2019-10-20T03:03:09Z
2019-10-20T01:05:46Z,42.805,6.029,13.2958,4.59966,2469.947,2019-10-20T03:06:12Z
2019-10-20T01:08:50Z,42.805,6.029,13.2961,4.59966,2469.914,2019-10-20T03:09:15Z
2019-10-20T01:11:53Z,42.805,6.029,13.2961,4.59969,2469.947,2019-10-20T03:12:19Z
2019-10-20T01:14:56Z,42.805,6.029,13.2963,4.59966,2469.923,2019-10-20T03:15:22Z
2019-10-20T01:17:59Z,42.805,6.029,13.2961,4.59969,2469.96,2019-10-20T03:18:25Z
2019-10-20T01:21:03Z,42.805,6.029,13.2964,4.59966,2469.97,2019-10-20T03:21:28Z
2019-10-20T01:24:06Z,42.805,6.029,13.2958,4.59966,2469.947,2019-10-20T03:24:31Z
2019-10-20T01:27:09Z,42.805,6.029,13.2960,4.59968,2469.937,2019-10-20T03:27:35Z
2019-10-20T01:30:12Z,42.805,6.029,13.2958,4.59963,2469.947,2019-10-20T03:30:38Z
2019-10-20T01:33:15Z,42.805,6.029,13.2958,4.59966,2469.984,2019-10-20T03:33:41Z
2019-10-20T01:36:19Z,42.805,6.029,13.2963,4.59965,2469.96,2019-10-20T03:36:44Z
2019-10-20T01:39:22Z,42.805,6.029,13.2962,4.59968,2469.937,2019-10-20T03:39:48Z
2019-10-20T01:42:25Z,42.805,6.029,13.2958,4.59968,2469.923,2019-10-20T03:42:51Z
2019-10-20T01:45:28Z,42.805,6.029,13.2959,4.59964,2469.923,2019-10-20T03:45:54Z
2019-10-20T01:48:32Z,42.805,6.029,13.2957,4.59967,2469.984,2019-10-20T03:48:57Z
2019-10-20T01:51:35Z,42.805,6.029,13.2959,4.59973,2469.96,2019-10-20T03:52:01Z
2019-10-20T01:54:38Z,42.805,6.029,13.2960,4.59966,2469.947,2019-10-20T03:55:04Z
2019-10-20T01:57:42Z,42.805,6.029,13.2960,4.59965,2469.923,2019-10-20T03:58:07Z
2019-10-20T02:00:45Z,42.805,6.029,13.2960,4.59964,2469.97,2019-10-20T04:01:11Z
2019-10-20T02:03:48Z,42.805,6.029,13.2959,4.59966,2469.937,2019-10-20T04:04:14Z
2019-10-20T02:06:51Z,42.805,6.029,13.2961,4.59966,2469.914,2019-10-20T04:07:17Z
2019-10-20T02:09:54Z,42.805,6.029,13.2963,4.59967,2469.923,2019-10-20T04:10:20Z
2019-10-20T02:12:58Z,42.805,6.029,13.2960,4.59964,2469.96,2019-10-20T04:13:23Z
2019-10-20T02:16:01Z,42.805,6.029,13.2962,4.59968,2469.96,2019-10-20T04:16:27Z
2019-10-20T02:19:04Z,42.805,6.029,13.2957,4.59967,2469.923,2019-10-20T04:19:30Z
2019-10-20T02:22:07Z,42.805,6.029,13.2959,4.59970,2469.947,2019-10-20T04:22:33Z
2019-10-20T02:25:11Z,42.805,6.029,13.2960,4.59964,2469.96,2019-10-20T04:25:36Z
2019-10-20T02:28:14Z,42.805,6.029,13.2958,4.59969,2469.9,2019-10-20T04:28:40Z
2019-10-20T02:31:17Z,42.805,6.029,13.2962,4.59966,2469.947,2019-10-20T04:31:43Z
2019-10-20T02:34:20Z,42.805,6.029,13.2958,4.59964,2469.947,2019-10-20T04:34:46Z
2019-10-20T02:37:23Z,42.805,6.029,13.2961,4.59964,2469.909,2019-10-20T04:37:49Z
2019-10-20T02:40:27Z,42.805,6.029,13.2962,4.59966,2469.9,2019-10-20T04:40:52Z
2019-10-20T02:43:30Z,42.805,6.029,13.2962,4.59966,2469.984,2019-10-20T04:43:56Z
2019-10-20T02:46:33Z,42.805,6.029,13.2962,4.59962,2469.937,2019-10-20T04:46:59Z
2019-10-20T02:49:36Z,42.805,6.029,13.2956,4.59968,2469.914,2019-10-20T04:50:02Z
2019-10-20T02:52:40Z,42.805,6.029,13.2961,4.59962,2469.914,2019-10-20T04:53:05Z
2019-10-20T02:55:43Z,42.805,6.029,13.2958,4.59963,2469.9,2019-10-20T04:56:09Z
2019-10-20T02:58:46Z,42.805,6.029,13.2962,4.59963,2469.914,2019-10-20T04:59:12Z
2019-10-20T03:01:49Z,42.805,6.029,13.2961,4.59971,2469.9,2019-10-20T05:02:15Z
2019-10-20T03:04:53Z,42.805,6.029,13.2962,4.59967,2469.937,2019-10-20T05:05:18Z
2019-10-20T03:07:56Z,42.805,6.029,13.2957,4.59965,2469.923,2019-10-20T05:08:22Z
2019-10-20T03:10:59Z,42.805,6.029,13.2957,4.59962,2469.9,2019-10-20T05:11:25Z
2019-10-20T03:14:02Z,42.805,6.029,13.2962,4.59966,2469.914,2019-10-20T05:14:28Z
2019-10-20T03:17:06Z,42.805,6.029,13.2958,4.59966,2469.914,2019-10-20T05:17:31Z
2019-10-20T03:20:09Z,42.805,6.029,13.2964,4.59971,2469.9,2019-10-20T05:20:35Z
2019-10-20T03:23:12Z,42.805,6.029,13.2959,4.59969,2469.876,2019-10-20T05:23:38Z
2019-10-20T03:26:15Z,42.805,6.029,13.2964,4.59968,2469.9,2019-10-20T05:26:41Z
2019-10-20T03:29:18Z,42.805,6.029,13.2962,4.59964,2469.923,2019-10-20T05:29:44Z
2019-10-20T03:32:22Z,42.805,6.029,13.2961,4.59966,2469.9,2019-10-20T05:32:47Z
2019-10-20T03:35:25Z,42.805,6.029,13.2958,4.59966,2469.9,2019-10-20T05:35:51Z
2019-10-20T03:38:28Z,42.805,6.029,13.2964,4.59963,2469.876,2019-10-20T05:38:54Z
2019-10-20T03:41:31Z,42.805,6.029,13.2959,4.59963,2469.9,2019-10-20T05:41:57Z
2019-10-20T03:44:35Z,42.805,6.029,13.2959,4.59966,2469.9,2019-10-20T05:45:00Z
2019-10-20T03:47:38Z,42.805,6.029,13.2959,4.59966,2469.9,2019-10-20T05:48:04Z
2019-10-20T03:50:41Z,42.805,6.029,13.2963,4.59962,2469.937,2019-10-20T05:51:07Z
2019-10-20T03:53:44Z,42.805,6.029,13.2964,4.59966,2469.914,2019-10-20T05:54:10Z
2019-10-20T03:56:47Z,42.805,6.029,13.2961,4.59964,2469.914,2019-10-20T05:57:13Z
2019-10-20T03:59:51Z,42.805,6.029,13.2965,4.59965,2469.923,2019-10-20T06:00:16Z
2019-10-20T04:02:54Z,42.805,6.029,13.2964,4.59968,2469.914,2019-10-20T06:03:20Z
2019-10-20T04:05:57Z,42.805,6.029,13.2961,4.59963,2469.937,2019-10-20T06:06:23Z
2019-10-20T04:09:00Z,42.805,6.029,13.2962,4.59961,2469.9,2019-10-20T06:09:26Z
2019-10-20T04:12:04Z,42.805,6.029,13.2957,4.59962,2469.89,2019-10-20T06:12:29Z
2019-10-20T04:15:07Z,42.805,6.029,13.2960,4.59968,2469.923,2019-10-20T06:15:32Z
2019-10-20T04:18:10Z,42.805,6.029,13.2961,4.59963,2469.876,2019-10-20T06:18:36Z
2019-10-20T04:21:13Z,42.805,6.029,13.2960,4.59964,2469.876,2019-10-20T06:21:39Z
2019-10-20T04:24:16Z,42.805,6.029,13.2959,4.59961,2469.937,2019-10-20T06:24:42Z
2019-10-20T04:27:20Z,42.805,6.029,13.2963,4.59964,2469.914,2019-10-20T06:27:45Z
2019-10-20T04:30:23Z,42.805,6.029,13.2961,4.59964,2469.9,2019-10-20T06:30:49Z
2019-10-20T04:33:26Z,42.805,6.029,13.2960,4.59962,2469.89,2019-10-20T06:33:52Z
2019-10-20T04:36:29Z,42.805,6.029,13.2960,4.59962,2469.9,2019-10-20T06:36:55Z
2019-10-20T04:39:32Z,42.805,6.029,13.2959,4.59961,2469.9,2019-10-20T06:39:58Z
2019-10-20T04:42:35Z,42.805,6.029,13.2961,4.59960,2469.914,2019-10-20T06:43:01Z
2019-10-20T04:45:39Z,42.805,6.029,13.2961,4.59963,2469.89,2019-10-20T06:46:04Z
2019-10-20T04:48:42Z,42.805,6.029,13.2958,4.59961,2469.9,2019-10-20T06:49:08Z
2019-10-20T04:51:45Z,42.805,6.029,13.2958,4.59961,2469.876,2019-10-20T06:52:11Z
2019-10-20T04:54:48Z,42.805,6.029,13.2959,4.59961,2469.9,2019-10-20T06:55:14Z
2019-10-20T04:57:52Z,42.805,6.029,13.2961,4.59964,2469.923,2019-10-20T06:58:17Z
2019-10-20T05:00:55Z,42.805,6.029,13.2962,4.59961,2469.89,2019-10-20T07:01:21Z
2019-10-20T05:03:58Z,42.805,6.029,13.2964,4.59964,2469.9,2019-10-20T07:04:24Z
2019-10-20T05:07:01Z,42.805,6.029,13.2965,4.59961,2469.867,2019-10-20T07:07:27Z
2019-10-20T05:10:04Z,42.805,6.029,13.2962,4.59964,2469.9,2019-10-20T07:10:30Z
2019-10-20T05:13:08Z,42.805,6.029,13.2963,4.59962,2469.9,2019-10-20T07:13:33Z
2019-10-20T05:16:11Z,42.805,6.029,13.2955,4.59966,2469.914,2019-10-20T07:16:37Z
2019-10-20T05:19:14Z,42.805,6.029,13.2957,4.59960,2469.937,2019-10-20T07:19:40Z
2019-10-20T05:22:17Z,42.805,6.029,13.2959,4.59962,2469.9,2019-10-20T07:22:43Z
2019-10-20T05:25:21Z,42.805,6.029,13.2961,4.59961,2469.937,2019-10-20T07:25:46Z
2019-10-20T05:28:24Z,42.805,6.029,13.2956,4.59960,2469.923,2019-10-20T07:28:50Z
2019-10-20T05:31:27Z,42.805,6.029,13.2959,4.59960,2469.923,2019-10-20T07:31:53Z
2019-10-20T05:34:30Z,42.805,6.029,13.2964,4.59963,2469.923,2019-10-20T07:34:56Z
2019-10-20T05:37:34Z,42.805,6.029,13.2959,4.59964,2469.89,2019-10-20T07:37:59Z
2019-10-20T05:40:37Z,42.805,6.029,13.2960,4.59961,2469.914,2019-10-20T07:41:03Z
2019-10-20T05:43:40Z,42.805,6.029,13.2961,4.59962,2469.96,2019-10-20T07:44:06Z
2019-10-20T05:46:43Z,42.805,6.029,13.2962,4.59963,2469.9,2019-10-20T07:47:09Z
2019-10-20T05:49:46Z,42.805,6.029,13.2964,4.59963,2469.923,2019-10-20T07:50:12Z
2019-10-20T05:52:50Z,42.805,6.029,13.2961,4.59963,2469.9,2019-10-20T07:53:15Z
2019-10-20T05:55:53Z,42.805,6.029,13.2959,4.59961,2469.89,2019-10-20T07:56:19Z
2019-10-20T05:58:56Z,42.805,6.029,13.2961,4.59961,2469.937,2019-10-20T07:59:22Z
2019-10-20T06:02:00Z,42.805,6.029,13.2958,4.59962,2469.923,2019-10-20T08:02:25Z
2019-10-20T06:05:03Z,42.805,6.029,13.2958,4.59961,2469.923,2019-10-20T08:05:29Z
2019-10-20T06:08:06Z,42.805,6.029,13.2960,4.59961,2469.914,2019-10-20T08:08:32Z
2019-10-20T06:11:09Z,42.805,6.029,13.2958,4.59961,2469.937,2019-10-20T08:11:35Z
2019-10-20T06:14:12Z,42.805,6.029,13.2961,4.59963,2469.9,2019-10-20T08:14:38Z
2019-10-20T06:17:16Z,42.805,6.029,13.2959,4.59962,2469.923,2019-10-20T08:17:41Z
2019-10-20T06:20:19Z,42.805,6.029,13.2958,4.59961,2469.9,2019-10-20T08:20:44Z
2019-10-20T06:23:22Z,42.805,6.029,13.2958,4.59961,2469.923,2019-10-20T08:23:48Z
2019-10-20T06:26:25Z,42.805,6.029,13.2957,4.59961,2469.9,2019-10-20T08:26:51Z
2019-10-20T06:29:28Z,42.805,6.029,13.2957,4.59962,2469.9,2019-10-20T08:29:54Z
2019-10-20T06:32:32Z,42.805,6.029,13.2959,4.59962,2469.937,2019-10-20T08:32:57Z
2019-10-20T06:35:35Z,42.805,6.029,13.2957,4.59960,2469.9,2019-10-20T08:36:01Z
2019-10-20T06:38:38Z,42.805,6.029,13.2957,4.59958,2469.923,2019-10-20T08:39:04Z
2019-10-20T06:41:41Z,42.805,6.029,13.2960,4.59958,2469.923,2019-10-20T08:42:07Z
2019-10-20T06:44:44Z,42.805,6.029,13.2963,4.59962,2469.923,2019-10-20T08:45:10Z
2019-10-20T06:47:48Z,42.805,6.029,13.2963,4.59960,2469.947,2019-10-20T08:48:13Z
2019-10-20T06:50:51Z,42.805,6.029,13.2960,4.59960,2469.96,2019-10-20T08:51:17Z
2019-10-20T06:53:54Z,42.805,6.029,13.2960,4.59958,2469.9,2019-10-20T08:54:20Z
2019-10-20T06:56:57Z,42.805,6.029,13.2958,4.59961,2469.947,2019-10-20T08:57:23Z
2019-10-20T07:00:01Z,42.805,6.029,13.2960,4.59960,2469.947,2019-10-20T09:00:26Z
2019-10-20T07:03:04Z,42.805,6.029,13.2958,4.59961,2469.923,2019-10-20T09:03:30Z
2019-10-20T07:06:07Z,42.805,6.029,13.2961,4.59961,2469.937,2019-10-20T09:06:33Z
2019-10-20T07:09:10Z,42.805,6.029,13.2959,4.59961,2469.947,2019-10-20T09:09:36Z
2019-10-20T07:12:14Z,42.805,6.029,13.2964,4.59962,2469.947,2019-10-20T09:12:39Z
2019-10-20T07:15:17Z,42.805,6.029,13.2962,4.59961,2469.947,2019-10-20T09:15:42Z
2019-10-20T07:18:20Z,42.805,6.029,13.2962,4.59958,2469.984,2019-10-20T09:18:46Z
2019-10-20T07:21:23Z,42.805,6.029,13.2958,4.59958,2469.984,2019-10-20T09:21:49Z
2019-10-20T07:24:26Z,42.805,6.029,13.2963,4.59958,2469.993,2019-10-20T09:24:52Z
2019-10-20T07:27:30Z,42.805,6.029,13.2957,4.59959,2469.984,2019-10-20T09:27:55Z
2019-10-20T07:30:33Z,42.805,6.029,13.2957,4.59962,2469.97,2019-10-20T09:30:59Z
2019-10-20T07:33:36Z,42.805,6.029,13.2961,4.59958,2469.97,2019-10-20T09:34:02Z
2019-10-20T07:36:39Z,42.805,6.029,13.2959,4.59958,2469.97,2019-10-20T09:37:05Z
2019-10-20T07:39:42Z,42.805,6.029,13.2961,4.59961,2469.984,2019-10-20T09:40:08Z
2019-10-20T07:42:46Z,42.805,6.029,13.2960,4.59960,2469.923,2019-10-20T09:43:11Z
2019-10-20T07:45:49Z,42.805,6.029,13.2959,4.59959,2469.947,2019-10-20T09:46:15Z
2019-10-20T07:48:52Z,42.805,6.029,13.2962,4.59961,2469.993,2019-10-20T09:49:18Z
2019-10-20T07:51:55Z,42.805,6.029,13.2957,4.59960,2469.97,2019-10-20T09:52:21Z
2019-10-20T07:54:58Z,42.805,6.029,13.2959,4.59960,2469.993,2019-10-20T09:55:24Z
2019-10-20T07:58:02Z,42.805,6.029,13.2962,4.59960,2469.97,2019-10-20T09:58:27Z
2019-10-20T08:01:05Z,42.805,6.029,13.2958,4.59958,2469.984,2019-10-20T10:01:31Z
2019-10-20T08:04:08Z,42.805,6.029,13.2961,4.59961,2469.984,2019-10-20T10:04:34Z
2019-10-20T08:07:11Z,42.805,6.029,13.2960,4.59959,2470.017,2019-10-20T10:07:37Z
2019-10-20T08:10:15Z,42.805,6.029,13.2960,4.59959,2470.03,2019-10-20T10:10:40Z
2019-10-20T08:13:18Z,42.805,6.029,13.2957,4.59958,2469.984,2019-10-20T10:13:44Z
2019-10-20T08:16:21Z,42.805,6.029,13.2959,4.59958,2469.993,2019-10-20T10:16:47Z
2019-10-20T08:19:25Z,42.805,6.029,13.2955,4.59963,2470.03,2019-10-20T10:19:50Z
2019-10-20T08:22:28Z,42.805,6.029,13.2960,4.59958,2469.96,2019-10-20T10:22:53Z
2019-10-20T08:25:31Z,42.805,6.029,13.2963,4.59959,2469.993,2019-10-20T10:25:57Z
2019-10-20T08:28:34Z,42.805,6.029,13.2960,4.59966,2470.003,2019-10-20T10:29:00Z
2019-10-20T08:31:37Z,42.805,6.029,13.2960,4.59960,2469.993,2019-10-20T10:32:03Z
2019-10-20T08:34:41Z,42.805,6.029,13.2961,4.59961,2469.993,2019-10-20T10:35:06Z
2019-10-20T08:37:44Z,42.805,6.029,13.2961,4.59961,2470.03,2019-10-20T10:38:10Z
2019-10-20T08:40:47Z,42.805,6.029,13.2961,4.59961,2470.017,2019-10-20T10:41:13Z
2019-10-20T08:43:50Z,42.805,6.029,13.2960,4.59960,2470.017,2019-10-20T10:44:16Z
2019-10-20T08:46:54Z,42.805,6.029,13.2960,4.59963,2470.03,2019-10-20T10:47:19Z
2019-10-20T08:49:57Z,42.805,6.029,13.2959,4.59966,2470.017,2019-10-20T10:50:23Z
2019-10-20T08:53:00Z,42.805,6.029,13.2964,4.59961,2469.993,2019-10-20T10:53:26Z
2019-10-20T08:56:03Z,42.805,6.029,13.2962,4.59960,2470.03,2019-10-20T10:56:29Z
2019-10-20T08:59:06Z,42.805,6.029,13.2961,4.59963,2470.03,2019-10-20T10:59:32Z
2019-10-20T09:02:10Z,42.805,6.029,13.2963,4.59963,2470.03,2019-10-20T11:02:35Z
2019-10-20T09:05:13Z,42.805,6.029,13.2965,4.59961,2470.017,2019-10-20T11:05:39Z
2019-10-20T09:08:16Z,42.805,6.029,13.2964,4.59960,2470.017,2019-10-20T11:08:42Z
2019-10-20T09:11:19Z,42.805,6.029,13.2964,4.59959,2470.03,2019-10-20T11:11:45Z
2019-10-20T09:14:23Z,42.805,6.029,13.2962,4.59965,2470.04,2019-10-20T11:14:48Z
2019-10-20T09:17:26Z,42.805,6.029,13.2961,4.59959,2470.04,2019-10-20T11:17:51Z
2019-10-20T09:20:29Z,42.805,6.029,13.2964,4.59960,2470.017,2019-10-20T11:20:55Z
2019-10-20T09:23:32Z,42.805,6.029,13.2964,4.59966,2470.03,2019-10-20T11:23:58Z
2019-10-20T09:26:35Z,42.805,6.029,13.2961,4.59959,2470.04,2019-10-20T11:27:01Z
2019-10-20T09:29:39Z,42.805,6.029,13.2963,4.59961,2470.053,2019-10-20T11:30:04Z
2019-10-20T09:32:42Z,42.805,6.029,13.2962,4.59958,2470.077,2019-10-20T11:33:08Z
2019-10-20T09:35:45Z,42.805,6.029,13.2958,4.59958,2470.063,2019-10-20T11:36:11Z
2019-10-20T09:38:48Z,42.805,6.029,13.2967,4.59958,2470.053,2019-10-20T11:39:14Z
2019-10-20T09:41:52Z,42.805,6.029,13.2964,4.59959,2470.077,2019-10-20T11:42:17Z
2019-10-20T09:44:55Z,42.805,6.029,13.2961,4.59958,2470.053,2019-10-20T11:45:21Z
2019-10-20T09:47:58Z,42.805,6.029,13.2959,4.59963,2470.04,2019-10-20T11:48:24Z
2019-10-20T09:51:01Z,42.805,6.029,13.2961,4.59971,2470.04,2019-10-20T11:51:27Z
2019-10-20T09:54:05Z,42.805,6.029,13.2959,4.59960,2470.04,2019-10-20T11:54:30Z
2019-10-20T09:57:08Z,42.805,6.029,13.2963,4.59961,2470.04,2019-10-20T11:57:34Z
2019-10-20T10:00:11Z,42.805,6.029,13.2961,4.59958,2470.063,2019-10-20T12:00:37Z
2019-10-20T10:03:14Z,42.805,6.029,13.2961,4.59959,2470.053,2019-10-20T12:03:40Z
2019-10-20T10:06:18Z,42.805,6.029,13.2959,4.59966,2470.087,2019-10-20T12:06:43Z
2019-10-20T10:09:21Z,42.805,6.029,13.2964,4.59962,2470.063,2019-10-20T12:09:47Z
2019-10-20T10:12:24Z,42.805,6.029,13.2961,4.59958,2470.017,2019-10-20T12:12:50Z
2019-10-20T10:15:27Z,42.805,6.029,13.2961,4.59964,2470.077,2019-10-20T12:15:53Z
2019-10-20T10:18:31Z,42.805,6.029,13.2960,4.59961,2470.11,2019-10-20T12:18:56Z
2019-10-20T10:21:34Z,42.805,6.029,13.2961,4.59961,2470.063,2019-10-20T12:22:00Z
2019-10-20T10:24:37Z,42.805,6.029,13.2962,4.59959,2470.077,2019-10-20T12:25:03Z
2019-10-20T10:27:40Z,42.805,6.029,13.2962,4.59961,2470.063,2019-10-20T12:28:06Z
2019-10-20T10:30:44Z,42.805,6.029,13.2961,4.59964,2470.077,2019-10-20T12:31:09Z
2019-10-20T10:33:47Z,42.805,6.029,13.2961,4.59970,2470.053,2019-10-20T12:34:13Z
2019-10-20T10:36:50Z,42.805,6.029,13.2961,4.59960,2470.1,2019-10-20T12:37:16Z
2019-10-20T10:39:53Z,42.805,6.029,13.2961,4.59961,2470.087,2019-10-20T12:40:19Z
2019-10-20T10:42:57Z,42.805,6.029,13.2957,4.59960,2470.077,2019-10-20T12:43:22Z
2019-10-20T10:46:00Z,42.805,6.029,13.2962,4.59959,2470.063,2019-10-20T12:46:26Z
2019-10-20T10:49:03Z,42.805,6.029,13.2961,4.59959,2470.077,2019-10-20T12:49:29Z
2019-10-20T10:52:06Z,42.805,6.029,13.2965,4.59958,2470.063,2019-10-20T12:52:32Z
2019-10-20T10:55:10Z,42.805,6.029,13.2959,4.59959,2470.04,2019-10-20T12:55:35Z
2019-10-20T10:58:13Z,42.805,6.029,13.2961,4.59960,2470.087,2019-10-20T12:58:39Z
2019-10-20T11:01:16Z,42.805,6.029,13.2962,4.59959,2470.1,2019-10-20T13:01:42Z
2019-10-20T11:04:19Z,42.805,6.029,13.2964,4.59959,2470.063,2019-10-20T13:04:45Z
2019-10-20T11:07:22Z,42.805,6.029,13.2958,4.59961,2470.087,2019-10-20T13:07:48Z
2019-10-20T11:10:26Z,42.805,6.029,13.2960,4.59962,2470.087,2019-10-20T13:10:51Z
2019-10-20T11:13:29Z,42.805,6.029,13.2962,4.59961,2470.077,2019-10-20T13:13:54Z
2019-10-20T11:16:32Z,42.805,6.029,13.2961,4.59960,2470.077,2019-10-20T13:16:58Z
2019-10-20T11:19:35Z,42.805,6.029,13.2959,4.59959,2470.1,2019-10-20T13:20:01Z
2019-10-20T11:22:38Z,42.805,6.029,13.2961,4.59958,2470.053,2019-10-20T13:23:04Z
2019-10-20T11:25:42Z,42.805,6.029,13.2964,4.59958,2470.087,2019-10-20T13:26:07Z
2019-10-20T11:28:45Z,42.805,6.029,13.2965,4.59959,2470.063,2019-10-20T13:29:11Z
2019-10-20T11:31:48Z,42.805,6.029,13.2962,4.59958,2470.063,2019-10-20T13:32:14Z
2019-10-20T11:34:51Z,42.805,6.029,13.2957,4.59959,2470.063,2019-10-20T13:35:17Z
2019-10-20T11:37:54Z,42.805,6.029,13.2958,4.59961,2470.063,2019-10-20T13:38:20Z
2019-10-20T11:40:58Z,42.805,6.029,13.2966,4.59960,2470.077,2019-10-20T13:41:23Z
2019-10-20T11:44:01Z,42.805,6.029,13.2961,4.59959,2470.1,2019-10-20T13:44:27Z
2019-10-20T11:47:04Z,42.805,6.029,13.2961,4.59961,2470.077,2019-10-20T13:47:30Z
2019-10-20T11:50:07Z,42.805,6.029,13.2959,4.59970,2470.087,2019-10-20T13:50:33Z
2019-10-20T11:53:11Z,42.805,6.029,13.2961,4.59968,2470.087,2019-10-20T13:53:36Z
2019-10-20T11:56:14Z,42.805,6.029,13.2959,4.59960,2470.04,2019-10-20T13:56:39Z
2019-10-20T11:59:17Z,42.805,6.029,13.2959,4.59958,2470.063,2019-10-20T13:59:43Z
2019-10-20T12:02:20Z,42.805,6.029,13.2964,4.59958,2470.063,2019-10-20T14:02:46Z
2019-10-20T12:05:23Z,42.805,6.029,13.2958,4.59960,2470.087,2019-10-20T14:05:49Z
2019-10-20T12:08:27Z,42.805,6.029,13.2958,4.59964,2470.087,2019-10-20T14:08:52Z
2019-10-20T12:11:30Z,42.805,6.029,13.2958,4.59961,2470.04,2019-10-20T14:11:56Z
2019-10-20T12:14:33Z,42.805,6.029,13.2963,4.59960,2470.063,2019-10-20T14:14:59Z
2019-10-20T12:17:36Z,42.805,6.029,13.2961,4.59960,2470.063,2019-10-20T14:18:02Z
2019-10-20T12:20:39Z,42.805,6.029,13.2963,4.59958,2470.04,2019-10-20T14:21:05Z
2019-10-20T12:23:43Z,42.805,6.029,13.2965,4.59961,2470.077,2019-10-20T14:24:08Z
2019-10-20T12:26:46Z,42.805,6.029,13.2958,4.59958,2470.077,2019-10-20T14:27:12Z
2019-10-20T12:29:49Z,42.805,6.029,13.2958,4.59959,2470.087,2019-10-20T14:30:15Z
2019-10-20T12:32:52Z,42.805,6.029,13.2960,4.59963,2470.11,2019-10-20T14:33:18Z
2019-10-20T12:35:55Z,42.805,6.029,13.2961,4.59964,2470.1,2019-10-20T14:36:21Z
2019-10-20T12:38:59Z,42.805,6.029,13.2964,4.59959,2470.049,2019-10-20T14:39:24Z
2019-10-20T12:42:02Z,42.805,6.029,13.2962,4.59961,2470.087,2019-10-20T14:42:28Z
2019-10-20T12:45:05Z,42.805,6.029,13.2958,4.59964,2470.04,2019-10-20T14:45:31Z
2019-10-20T12:48:08Z,42.805,6.029,13.2961,4.59960,2470.077,2019-10-20T14:48:34Z
2019-10-20T12:51:12Z,42.805,6.029,13.2961,4.59959,2470.063,2019-10-20T14:51:37Z
2019-10-20T12:54:15Z,42.805,6.029,13.2962,4.59960,2470.11,2019-10-20T14:54:41Z
2019-10-20T12:57:18Z,42.805,6.029,13.2959,4.59960,2470.077,2019-10-20T14:57:44Z
2019-10-20T13:00:21Z,42.805,6.029,13.2965,4.59961,2470.077,2019-10-20T15:00:47Z
2019-10-20T13:03:24Z,42.805,6.029,13.2961,4.59961,2470.017,2019-10-20T15:03:50Z
2019-10-20T13:06:28Z,42.805,6.029,13.2965,4.59961,2470.04,2019-10-20T15:06:53Z
2019-10-20T13:09:31Z,42.805,6.029,13.2961,4.59958,2470.04,2019-10-20T15:09:57Z
2019-10-20T13:12:34Z,42.805,6.029,13.2961,4.59958,2470.053,2019-10-20T15:13:00Z
2019-10-20T13:15:37Z,42.805,6.029,13.2960,4.59960,2470.053,2019-10-20T15:16:03Z
2019-10-20T13:18:40Z,42.805,6.029,13.2961,4.59958,2470.04,2019-10-20T15:19:06Z
2019-10-20T13:21:44Z,42.805,6.029,13.2961,4.59959,2470.04,2019-10-20T15:22:09Z
2019-10-20T13:24:47Z,42.805,6.029,13.2961,4.59966,2470.1,2019-10-20T15:25:13Z
2019-10-20T13:27:50Z,42.805,6.029,13.2960,4.59961,2470.053,2019-10-20T15:28:16Z
2019-10-20T13:30:53Z,42.805,6.029,13.2961,4.59963,2470.04,2019-10-20T15:31:19Z
2019-10-20T13:33:56Z,42.805,6.029,13.2966,4.59963,2470.053,2019-10-20T15:34:22Z
2019-10-20T13:37:00Z,42.805,6.029,13.2963,4.59961,2470.04,2019-10-20T15:37:25Z
2019-10-20T13:40:03Z,42.805,6.029,13.2961,4.59961,2470.077,2019-10-20T15:40:29Z
2019-10-20T13:43:06Z,42.805,6.029,13.2964,4.59963,2470.026,2019-10-20T15:43:32Z
2019-10-20T13:46:09Z,42.805,6.029,13.2966,4.59963,2470.063,2019-10-20T15:46:35Z
2019-10-20T13:49:13Z,42.805,6.029,13.2961,4.59959,2470.04,2019-10-20T15:49:38Z
2019-10-20T13:52:16Z,42.805,6.029,13.2960,4.59958,2470.053,2019-10-20T15:52:42Z
2019-10-20T13:55:19Z,42.805,6.029,13.2962,4.59962,2470.04,2019-10-20T15:55:45Z
2019-10-20T13:58:22Z,42.805,6.029,13.2959,4.59961,2470.017,2019-10-20T15:58:48Z
2019-10-20T14:01:25Z,42.805,6.029,13.2958,4.59961,2470.04,2019-10-20T16:01:51Z
2019-10-20T14:04:29Z,42.805,6.029,13.2962,4.59961,2470.04,2019-10-20T16:04:54Z
2019-10-20T14:07:32Z,42.805,6.029,13.2957,4.59960,2470.04,2019-10-20T16:07:58Z
2019-10-20T14:10:35Z,42.805,6.029,13.2960,4.59961,2470.053,2019-10-20T16:11:01Z
2019-10-20T14:13:38Z,42.805,6.029,13.2961,4.59961,2470.017,2019-10-20T16:14:04Z
2019-10-20T14:16:41Z,42.805,6.029,13.2958,4.59962,2470.017,2019-10-20T16:17:07Z
2019-10-20T14:19:45Z,42.805,6.029,13.2961,4.59958,2470.077,2019-10-20T16:20:10Z
2019-10-20T14:22:48Z,42.805,6.029,13.2962,4.59961,2470.04,2019-10-20T16:23:14Z
2019-10-20T14:25:51Z,42.805,6.029,13.2963,4.59959,2469.993,2019-10-20T16:26:17Z
2019-10-20T14:28:55Z,42.805,6.029,13.2964,4.59963,2470.017,2019-10-20T16:29:20Z
2019-10-20T14:31:58Z,42.805,6.029,13.2959,4.59958,2470.053,2019-10-20T16:32:24Z
2019-10-20T14:35:01Z,42.805,6.029,13.2962,4.59959,2470.077,2019-10-20T16:35:27Z
2019-10-20T14:38:04Z,42.805,6.029,13.2964,4.59958,2470.04,2019-10-20T16:38:30Z
2019-10-20T14:41:07Z,42.805,6.029,13.2963,4.59961,2470.04,2019-10-20T16:41:33Z
2019-10-20T14:44:11Z,42.805,6.029,13.2961,4.59961,2470.04,2019-10-20T16:44:36Z
2019-10-20T14:47:14Z,42.805,6.029,13.2958,4.59960,2470.04,2019-10-20T16:47:40Z
2019-10-20T14:50:17Z,42.805,6.029,13.2961,4.59959,2470.04,2019-10-20T16:50:43Z
2019-10-20T14:53:20Z,42.805,6.029,13.2963,4.59958,2470.017,2019-10-20T16:53:46Z
2019-10-20T14:56:23Z,42.805,6.029,13.2960,4.59965,2470.053,2019-10-20T16:56:49Z
2019-10-20T14:59:26Z,42.805,6.029,13.2958,4.59959,2470.017,2019-10-20T16:59:52Z
2019-10-20T15:02:30Z,42.805,6.029,13.2961,4.59959,2469.993,2019-10-20T17:02:55Z